SCP
0 0 0 0 0 0 0 0 0 0 0 0 0 0 0 0 0 0 0 0 0 0 0 0 0 0 0 0 0 0 0 0 0 0 0 0 0 0 0 0 0 0 0
0 0 0 0 0 0 0 0 0 0 0 0 0 0 0 0 0 0 0 0 0 0 0 0 0 0 0 0 0 0 0 0 0 0 0 0 0 0 0 0 0 0 0
0 0 0 0 0 0 0 0 0 0 0 0 0 0 0 0 0 0 0 0 0 0 0 0 0 0 0 0 0 0 0 0 0 0 0 0 0 0 0 0 0 0 0
0 0 0 0 0 0 0 0 0 0 0 0 0 0 0 0 0 0 0 0 0 0 0 0 0 0 0 0 0 0 0 0 0 0 0 0 0 0 0 0 0 0 0
0 0 0 0 0 0 0 0 0 0 0 0 0 0 0 0 0 0 0 0 0 0 0 0 0 0 0 0 0 0 0 0 0 0 0 0 0 0 0 0 0 0 0
0 0 0 0 0 0 0 0 0 0 0 0 0 0 0 0 0 0 0 0 0 0 0 0 0 0 0 0 0 0 0 0 0 0 0 0 0 0 0 0 0 0 0
0 0 0 0 0 0 0 0 0 0 0 0 0 0 0 0 0 0 0 0 0 0 0 0 0 0 0 0 0 0 0 0 0 0 0 0 0 0 0 0 0 0 0
0 0 0 0 0 0 0 0 0 0 0 0 0 0 0 0 0 0 0 0 0 0 0 0 0 0 0 0 0 0 0 0 0 0 0 0 0 0 0 0 0 0 0
0 0 0 0 0 0 0 0 0 0 0 0 0 0 0 0 0 0 0 0 0 0 0 0 0 0 0 0 0 0 0 0 0 0 0 0 0 0 0 0 0 0 0
0 0 0 0 0 0 0 0 0 0 0 0 0 0 0 0 0 0 0 0 0 0 0 0 0 0 0 0 0 0 0 0 0 0 0 0 0 0 0 0 0 0 0
0 0 0 0 0 0 0 0 0 0 0 0 0 0 0 0 0 0 0 0 0 0 0 0 0 0 0 0 0 0 0 0 0 0 0 0 0 0 0 0 0 0 0
0 0 0 0 0 0 0 0 0 0 0 0 0 0 0 0 0 0 0 0 0 0 0 0 0 0 0 0 0 0 0 0 0 0 0 0 0 0 0 0 0 0 0
0 0 0 0 0 0 0 0 0 0 0 0 0 0 0 0 0 0 0 0 0 0 0 0 0 0 0 0 0 0 0 0 0 0 0 0 0 0 0 0 0 0 0
0 0 0 0 0 0 0 0 0 0 0 0 0 0 0 0 0 0 0 0 0 0 0 0 0 0 0 0 0 0 0 0 0 0 0 0 0 0 0 0 0 0 0
0 0 0 0 0 0 0 0 0 0 0 0 0 0 0 0 0 0 0 0 0 0 0 0 0 0 0 0 0 0 0 0 0 0 0 0 0 0 0 0 0 0 0
0 0 0 0 0 0 0 0 0 0 0 0 0 0 0 0 0 0 0 0 0 0 0 0 0 0 0 0 0 0 0 0 0 0 0 0 0 0 0 0 0 0 0
0 0 0 0 0 0 0 0 0 0 0 0 0 0 0 0 0 0 0 0 0 0 0 0 0 0 0 0 0 0 0 0 0 0 0 0 0 0 0 0 0 0 0
0 0 0 0 0 0 0 0 0 0 0 0 0 0 0 0 0 0 0 0 0 0 0 0 0 0 0 0 0 0 0 0 0 0 0 0 0 0 0 0 0 0 0
0 0 0 0 0 0 0 0 0 0 0 0 0 0 0 0 0 0 0 0 0 0 0 0 0 0 0 0 0 0 0 0 0 0 0 0 0 0 0 0 0 0 0
0 0 0 0 0 0 0 0 0 0 0 0 0 0 0 0 0 0 0 0 0 0 0 0 0 0 0 0 0 0 0 0 0 0 0 0 0 0 0 0 0 0 0
0 0 0 0 0 0 0 0 0 0 0 0 0 0 0 0 0 0 0 0 0 0 0 0 0 0 0 0 0 0 0 0 0 0 0 0 0 0 0 0 0 0 0
0 0 0 0 0 0 0 0 0 0 0 0 0 0 0 0 0 0 0 0 0 0 0 0 0 0 0 0 0 0 0 0 0 0 0 0 0 0 0 0 0 0 0
0 0 0 0 0 0 0 0 0 0 0 0 0 0 0 0 0 0 0 0 0 0 0 0 0 0 0 0 0 0 0 0 0 0 0 0 0 0 0 0 0 0 0
0 0 0 0 0 0 0 0 0 0 0 0 0 0 0 0 0 0 0 0 0 0 0 0 0 0 0 0 0 0 0 0 0 0 0 0 0 0 0 0 0 0 0
0 0 0 0 0 0 0 0 0 0 0 0 0 0 0 0 0 0 0 0 0 0 0 0 0 0 0 0 0 0 0 0 0 0 0 0 0 0 0 0 0 0 0
0 0 0 0 0 0 0 0 0 0 0 0 0 0 0 0 0 0 0 0 0 0 0 0 0 0 0 0 0 0 0 0 0 0 0 0 0 0 0 0 0 0 0
Wind_Speed
6 7 8 9 9 9 9 9 9 9 9 9 9 9 9 9 9 9 9 9 9 9 9 8 8 7 7 7 7 6 5 5 5 5 5 6 7 7 7 6 5 4 8
7 8 9 9 9 9 9 8 9 9 9 9 9 9 9 9 9 9 9 9 9 9 9 8 7 7 7 6 6 5 5 4 3 3 4 4 6 7 7 7 7 5 7
8 8 8 9 9 9 9 9 9 9 9 9 9 10 10 10 10 10 10 9 9 9 8 8 8 7 7 7 6 4 4 3 1 1 1 2 4 7 7 7 8 8 7
8 8 9 9 9 10 10 9 9 8 8 9 9 9 9 10 10 10 10 10 9 9 9 8 8 8 7 6 5 4 3 2 2 2 1 3 4 7 8 8 7 7 7
9 9 8 9 9 10 9 9 9 8 9 9 9 9 9 10 10 10 10 10 10 9 9 9 8 8 8 8 6 4 2 2 2 2 3 4 4 7 8 8 8 8 7
9 8 8 9 9 10 10 9 9 9 9 9 10 10 9 9 10 10 10 10 10 10 9 9 9 9 8 7 7 5 2 1 2 3 5 5 4 8 9 9 8 8 8
8 7 8 8 9 9 10 10 9 9 9 9 10 9 9 9 10 10 10 10 10 10 10 9 9 9 8 8 8 7 4 2 3 5 5 5 6 9 9 8 8 8 8
8 8 7 8 10 10 10 10 11 10 9 9 9 9 8 9 9 10 10 10 10 10 10 9 9 9 8 8 8 8 6 5 5 7 6 5 8 9 8 8 8 8 8
6 7 6 7 8 10 10 10 10 10 9 9 8 8 8 8 9 10 10 9 10 10 9 9 8 8 7 7 6 7 7 6 4 4 7 5 8 9 8 8 8 8 8
6 6 5 7 7 7 6 8 9 8 8 8 7 7 7 8 8 9 8 8 9 9 8 7 7 6 5 5 4 5 5 5 5 6 5 6 10 10 10 9 9 9 9
6 4 4 6 6 6 6 7 6 6 6 6 5 5 4 3 4 5 8 8 8 7 6 5 4 3 3 2 3 3 3 3 6 6 5 10 12 11 11 10 10 10 10
4 4 4 5 5 5 4 4 3 3 3 2 3 3 2 2 4 5 6 6 6 5 4 3 3 2 2 1 2 2 2 5 5 5 6 13 13 12 12 11 11 11 11
4 3 4 5 5 4 3 3 2 2 2 2 3 4 2 3 3 3 2 2 2 3 2 2 2 2 2 2 2 2 4 4 4 5 7 13 13 12 12 12 12 12 12
4 4 4 4 4 4 3 3 2 2 2 2 2 4 3 2 3 2 2 2 2 2 2 2 2 3 4 4 4 4 6 4 4 4 6 12 12 12 11 12 12 12 12
5 4 4 3 4 4 4 2 3 2 2 3 2 3 4 2 2 2 2 2 2 2 2 2 3 3 4 4 5 6 6 5 5 5 4 10 11 11 12 12 12 12 11
5 4 3 3 4 4 3 3 3 2 2 3 2 2 4 2 2 2 2 2 2 2 2 2 3 3 3 3 4 5 5 5 5 5 4 6 10 10 11 12 12 12 11
4 4 4 3 4 4 4 3 3 2 3 3 2 2 3 3 3 3 2 2 2 2 3 3 4 3 3 3 4 4 4 4 4 4 4 4 4 8 10 11 11 11 11
4 4 4 4 4 4 3 3 2 3 3 2 2 2 3 3 4 3 2 2 2 2 2 2 3 3 3 3 3 3 3 3 4 3 3 4 3 4 6 9 10 10 11
4 4 4 4 4 4 4 4 3 3 3 2 2 2 3 4 4 3 2 2 3 3 2 3 2 2 2 2 1 2 2 2 2 3 3 4 4 4 3 6 9 10 11
4 4 4 4 3 4 3 3 2 3 3 2 2 3 3 3 4 3 2 3 3 3 3 3 3 2 2 2 2 2 2 2 2 3 3 3 4 4 4 4 4 5 10
4 4 4 4 3 3 2 2 2 2 2 2 3 4 4 4 4 3 3 3 3 3 2 3 2 3 2 2 2 2 2 2 2 2 2 2 3 3 3 4 3 3 4
4 3 3 3 3 3 2 2 2 2 2 3 2 3 3 3 4 3 3 3 3 2 3 3 3 2 2 2 1 1 1 2 2 1 2 2 3 2 3 4 4 4 4
3 3 2 3 4 3 3 2 3 2 2 2 2 2 3 3 3 3 3 3 3 3 2 2 3 3 2 2 2 1 1 0 1 2 2 2 2 2 2 2 4 4 5
3 3 3 3 3 3 3 3 3 2 2 1 1 1 2 3 3 3 3 3 3 2 2 2 2 1 2 2 2 2 1 1 1 1 2 1 2 2 2 3 3 3 4
3 2 3 3 3 3 3 3 2 2 2 1 2 2 2 2 2 2 2 2 2 2 2 2 2 2 1 1 1 2 3 2 1 1 1 1 1 1 1 2 2 2 3
3 3 2 3 3 3 2 3 3 3 2 2 2 2 1 1 1 2 3 3 2 2 2 2 2 2 1 1 1 1 1 1 1 0 1 1 0 1 0 1 1 2 2
Wind_Direction
83 83 72 63 61 57 55 55 55 56 56 55 58 61 61 62 64 66 66 66 67 68 69 71 68 66 65 60 59 62 63 67 74 74 74 78 80 77 72 67 62 69 73
96 88 75 66 63 60 58 61 62 61 59 57 58 61 63 64 66 67 68 66 66 67 65 65 65 66 66 62 61 59 58 54 69 79 84 89 84 77 74 71 66 70 72
94 94 80 67 67 65 64 64 64 64 64 61 60 62 64 64 67 65 64 64 67 66 63 60 62 64 64 61 60 55 56 59 49 71 83 113 94 80 76 74 71 69 67
93 89 78 73 72 69 67 67 67 66 67 65 64 67 67 65 66 65 63 64 66 64 59 57 58 60 61 59 55 50 50 57 39 28 59 67 78 82 79 74 68 66 67
86 88 86 80 76 72 72 71 69 68 69 69 68 69 68 67 65 63 63 64 63 62 58 56 56 56 56 54 48 40 40 59 51 63 68 69 69 81 79 72 67 64 65
89 92 92 85 80 75 76 73 71 73 74 74 72 70 69 70 67 67 65 63 62 60 60 59 58 58 56 50 42 34 43 83 73 87 75 76 73 75 75 72 66 65 65
100 102 103 95 88 82 79 76 73 76 77 76 74 72 72 72 71 68 67 63 63 61 61 59 59 59 55 47 38 36 38 56 111 94 84 79 72 76 75 70 65 64 63
105 106 106 105 101 92 85 79 76 77 79 78 74 74 77 79 76 72 70 65 63 60 59 60 61 61 54 45 38 37 42 44 77 92 91 77 74 76 76 69 65 65 66
99 107 111 121 113 103 94 88 84 81 83 82 80 78 79 81 81 77 72 70 68 64 59 59 61 60 56 48 39 39 43 35 51 77 81 78 73 72 72 69 68 67 68
90 98 108 115 124 122 113 100 97 93 90 88 84 81 81 79 81 81 80 77 75 71 65 63 61 59 56 47 35 36 37 30 69 70 68 73 69 66 65 66 70 70 68
87 89 95 102 112 118 121 116 115 111 104 98 93 81 83 87 92 82 82 85 80 77 70 57 50 57 54 42 28 32 37 65 80 73 65 71 67 63 62 65 71 72 70
105 102 100 99 100 103 101 115 125 111 108 103 102 89 71 67 73 79 86 84 83 81 75 49 23 25 16 35 47 42 43 69 80 79 72 72 68 62 60 64 68 70 68
107 96 100 101 99 101 104 105 96 99 96 70 76 92 76 72 76 75 80 73 74 82 56 42 20 8 18 42 55 60 58 67 75 75 74 73 69 65 61 65 70 70 67
101 94 89 93 100 97 91 97 93 87 95 77 52 81 75 65 62 59 61 43 38 37 29 27 26 27 31 30 43 58 66 68 74 80 75 75 72 69 66 66 69 68 66
115 102 90 93 100 97 88 88 88 71 66 83 65 72 83 72 69 65 60 49 31 30 33 25 35 39 35 32 39 54 63 70 78 80 80 77 74 70 68 68 67 65 64
111 112 98 97 94 99 97 88 86 90 77 62 45 61 84 83 76 72 63 50 32 22 24 29 40 43 47 42 45 49 57 67 75 85 90 81 76 70 69 67 65 62 60
116 117 119 114 95 92 84 77 79 73 75 66 42 38 71 76 73 73 63 51 35 27 30 29 36 39 41 41 47 49 60 53 69 78 91 93 84 73 72 70 65 62 58
117 113 112 107 99 91 94 85 80 76 73 65 49 31 49 66 71 59 49 45 45 35 28 40 37 37 42 32 33 39 59 58 58 67 81 86 90 88 78 76 69 63 59
105 106 99 89 95 91 95 90 76 75 72 64 47 40 39 46 60 67 50 42 45 44 27 34 47 46 49 31 32 48 54 64 52 55 64 76 80 91 95 80 74 67 61
104 103 104 95 91 93 89 88 80 66 65 65 56 44 47 49 46 48 55 53 49 45 27 25 28 41 52 29 36 53 56 61 50 56 53 63 68 73 88 90 81 67 63
118 110 108 107 96 93 88 85 84 76 65 55 53 43 39 49 51 49 43 52 52 54 35 28 30 33 35 36 49 29 35 63 56 64 64 70 68 61 71 86 86 78 67
128 111 109 110 102 101 95 105 106 88 76 73 56 47 36 41 45 47 45 54 54 55 40 33 39 32 8 28 47 28 14 10 6 58 71 79 72 57 64 73 80 81 78
127 125 130 116 106 100 101 86 87 77 72 70 70 57 37 40 50 51 48 50 56 60 49 43 44 44 9 355 18 53 76 338 328 3 47 71 78 64 55 64 75 80 80
131 136 135 124 121 120 123 113 113 112 112 118 105 93 67 49 50 47 52 57 53 51 57 44 47 45 37 358 349 2 22 115 123 332 341 26 74 82 70 59 64 76 82
129 129 137 134 131 125 120 131 130 120 128 112 91 87 77 53 54 48 46 66 64 56 57 41 42 40 43 28 11 354 359 356 17 114 287 320 2 20 84 85 83 84 87
135 132 132 126 124 130 143 150 138 129 124 110 100 100 94 70 40 46 43 51 56 55 49 33 39 28 17 12 14 32 17 352 334 1 262 249 256 283 68 103 106 104 104